Date,TemperatureHighF,TemperatureAvgF,TemperatureLowF,DewpointHighF,DewpointAvgF,DewpointLowF,HumidityHigh,HumidityAvg,HumidityLow,PressureMaxIn,PressureMinIn,WindSpeedMaxMPH,WindSpeedAvgMPH,GustSpeedMaxMPH,PrecipitationSumIn
2013-4-1,65.3,46.8,36.7,47.1,35.1,25.8,86,67,42,0.00,0.00,0,0,0,0.00
2013-4-2,58.8,42.1,30.4,27.5,21.9,18.6,69,47,26,0.00,0.00,0,0,0,0.00
2013-4-3,60.6,44.1,28.0,27.0,20.6,15.7,66,42,25,0.00,0.00,0,0,0,0.00
2013-4-4,51.6,39.1,29.1,30.7,20.7,14.6,77,49,31,0.00,0.00,0,0,0,0.00
2013-4-5,65.3,49.0,36.9,47.1,37.0,30.7,85,66,39,0.00,0.00,0,0,0,0.00
2013-4-6,62.4,49.4,36.7,33.9,29.0,23.9,68,48,29,0.00,0.00,0,0,0,0.00
2013-4-7,74.5,56.6,37.9,46.6,37.1,26.0,63,49,37,0.00,0.00,0,0,0,0.00
2013-4-8,84.2,66.1,46.6,53.0,46.0,36.8,74,50,33,0.00,0.00,0,0,0,0.47
2013-4-9,89.2,74.3,59.4,58.7,52.9,47.6,70,49,33,0.00,0.00,0,0,0,0.00
2013-4-10,94.8,77.6,61.3,61.8,55.5,49.9,72,49,31,0.00,0.00,0,0,0,0.46
2013-4-11,88.9,76.5,62.2,62.4,56.9,51.5,72,52,35,0.00,0.00,0,0,0,0.00
2013-4-12,78.1,69.6,62.8,66.9,57.7,43.6,87,68,42,0.00,0.00,0,0,0,0.46
2013-4-13,75.2,62.8,48.0,45.5,41.1,35.7,71,47,31,0.00,0.00,0,0,0,0.46
2013-4-14,77.7,63.6,46.9,46.1,40.5,33.3,65,44,32,0.00,0.00,0,0,0,0.00
2013-4-15,63.5,58.2,53.8,54.7,49.8,41.5,84,75,47,0.00,0.00,0,0,0,0.00
2013-4-16,73.0,62.7,55.9,60.8,55.6,51.1,85,78,64,0.00,0.00,0,0,0,0.00
2013-4-17,83.5,69.7,58.8,64.2,58.7,53.7,85,70,47,0.00,0.00,0,0,0,0.00
2013-4-18,79.0,68.8,62.1,64.7,58.3,55.6,84,70,52,0.00,0.00,0,0,0,0.00
2013-4-19,77.5,68.5,58.1,65.7,60.8,53.3,86,77,66,0.00,0.00,0,0,0,0.46
2013-4-20,62.4,53.9,45.1,52.9,39.4,35.3,84,59,38,0.00,0.00,0,0,0,0.00
2013-4-21,57.7,48.8,38.8,36.4,33.1,29.6,71,56,43,0.00,0.00,0,0,0,0.00
2013-4-22,59.7,48.3,34.0,39.4,34.5,26.6,78,60,45,0.00,0.00,0,0,0,0.00
2013-4-23,65.7,55.2,47.8,48.0,42.3,37.1,71,62,52,0.00,0.00,0,0,0,0.00
2013-4-24,77.7,62.1,43.5,57.4,49.2,37.4,83,65,45,0.00,0.00,0,0,0,0.00
2013-4-25,66.9,58.0,47.5,54.9,40.5,36.4,74,54,35,0.00,0.00,0,0,0,0.00
2013-4-26,67.8,52.7,39.4,56.4,38.4,31.4,75,60,36,0.00,0.00,0,0,0,0.46
2013-4-27,72.1,59.9,47.1,49.1,44.1,39.1,76,57,39,0.00,0.00,0,0,0,0.00
2013-4-28,59.2,56.3,51.6,50.9,46.5,41.5,77,70,60,0.00,0.00,0,0,0,0.46
2013-4-29,62.2,56.9,53.2,57.3,52.4,47.4,87,85,77,0.00,0.00,0,0,0,0.00
2013-4-30,62.4,58.3,55.0,56.6,53.7,51.2,87,85,79,0.00,0.00,0,0,0,0.46